Ohio Foreclosures > Auctions > 1023 Dana Avenue, Cincinnati, OH 45229

1023 Dana Avenue, Cincinnati, OH 45229

Auction ID :
#1128
Reserve :
Reserve price not met.
Location :
Posted On :
4th of May 2018 at 3:50 PM
Ending On :
23rd of May 2018 at 2:09 PM
Watch List :
Image Gallery
Property Specifications
Year Built 1940
Annual Taxes $3,536.06
Lot Size 0.205
Parcel ID 108-0006-0044-00
Defendant n/a
File No. n/a
Case No. n/a
Appraisal Amount n/a
City Cincinnati
Number of Units 3
Description

Court Appointed Receiver Auction. Right across the street from Xavier University! This brick 3 family is currently 100% rented for a total of $1,875/month. Property features 2-2 bedroom and 1-1 bedroom units and a 3 car detached garage. Sold 100% AS IS. no representations or warranties​ of any kind, expressed or implied​. . Auction will end May 23, 2018 @2PM. The buyer MUST use Safe Title to close. There will be a $10,000 non-refundable deposit required to be wired to Safe Title by 2:00PM the day after auction end.​ High bidder must execute Receiver’s Purchase and Sale Agreement.​ ​Bidders may inspect at any of the three open houses and bidders may obtain financing on the purchase, HOWEVER, NO FINANCING OR INSPECTION CONTINGENCIES WILL BE PERMITTED. If the high bidder does not close for any reason, other than Receiver not being able to convey insurable title, the high bidder will lose their deposit and may face contempt of court charges. DO NOT BID UNLESS YOU PLAN TO CLOSE. The winning bidder will ​be required to ​close on the property​ within 31 days of court approval.​ ​ (​Expect 6-8 weeks from auction end until required closing date​.)​ There will be no private showings for this auction, only the scheduled and advertised open houses.​ Receiver reserves the right to accept any offer, in its sole discretion, prior to auction end and without notice.

Open Houses:
May 10, 2018 3-4PM
May 17, 2018 2-3PM
​May 22, 2018 10-11AM

Posted Bids
BidderBid AmountDate MadeWinner
Yo*****n$127,200.0023-May-2018 14:05:34 
ke*****2$127,100.0023-May-2018 14:05:33 
Yo*****n$126,900.0023-May-2018 14:00:39 
pc*****7$126,800.0023-May-2018 14:00:38 
Yo*****n$126,500.0023-May-2018 13:58:23 
pc*****7$126,400.0023-May-2018 13:58:02 
ke*****2$126,300.0023-May-2018 13:58:01 
ke*****2$126,200.0023-May-2018 13:57:30 
pc*****7$126,100.0023-May-2018 13:56:32 
Yo*****n$126,000.0023-May-2018 13:56:31 
Yo*****n$125,600.0023-May-2018 13:55:30 
pc*****7$125,500.0023-May-2018 13:55:30 
Yo*****n$125,100.0023-May-2018 13:54:32 
pc*****7$125,000.0023-May-2018 13:54:31 
Yo*****n$122,100.0023-May-2018 13:53:53 
pc*****7$122,000.0023-May-2018 13:53:52 
Yo*****n$119,100.0023-May-2018 13:53:19 
pc*****7$119,000.0023-May-2018 13:53:18 
Yo*****n$118,400.0023-May-2018 13:52:39 
pc*****7$118,300.0023-May-2018 13:52:37 
Yo*****n$118,100.0023-May-2018 13:52:19 
pc*****7$118,000.0023-May-2018 13:52:19 
Yo*****n$116,100.0023-May-2018 13:51:46 
pc*****7$116,000.0023-May-2018 13:51:46 
Yo*****n$115,600.0023-May-2018 13:51:22 
pc*****7$115,500.0023-May-2018 13:51:22 
Yo*****n$114,600.0023-May-2018 13:51:05 
pc*****7$114,500.0023-May-2018 13:51:04 
Yo*****n$114,000.0023-May-2018 13:50:37 
ke*****2$113,900.0023-May-2018 13:50:36 
Yo*****n$113,700.0023-May-2018 13:50:21 
pc*****7$113,600.0023-May-2018 13:50:20 
Yo*****n$113,400.0023-May-2018 13:49:45 
ke*****2$113,300.0023-May-2018 13:49:45 
Yo*****n$113,100.0023-May-2018 13:48:39 
ke*****2$113,000.0023-May-2018 13:48:38 
Yo*****n$112,100.0023-May-2018 13:48:05 
ke*****2$112,000.0023-May-2018 13:48:05 
Yo*****n$110,900.0023-May-2018 13:47:18 
ke*****2$110,800.0023-May-2018 13:47:17 
Yo*****n$110,600.0023-May-2018 13:46:32 
ke*****2$110,500.0023-May-2018 13:46:32 
Yo*****n$110,300.0023-May-2018 12:34:58 
Yo*****n$110,200.0022-May-2018 22:48:50 
JJ***********4$110,100.0022-May-2018 22:48:50 
JJ***********4$110,000.0007-May-2018 13:46:10 

In order to bid on this property you must pre-authorize a deposit of $ on your credit card. NO hold will be placed on your credit card and your credit card will NOT be charged, UNLESS you are the high bidder and do not pay the required deposit within 24 hours of the advertised auction end. A $200 administrative fee will be added to any deposit that is charged to a credit card.